Tracking 27405 objects as of 1-Jun-2023
HD Live streaming from Space Station
objects crossing your sky now

FENGYUN 1C DEB

Track FENGYUN 1C DEB now!
10-day predictions


NORAD ID: 38793
Int'l Code: 1999-025EUH
Perigee: 654.2 km
Apogee: 785.6 km
Inclination: 98.7 °
Period: 99.0 minutes
Semi major axis: 7090 km
RCS: 0.0014 m2 (small)
Launch date: May 10, 1999
Source: People's Republic of China (PRC)
Launch site: Taiyaun Space Center, China (TSC)

Note: This is SATELLITE DEBRIS
Your satellite tracking list
Your tracking list is empty




NASA's NSSDC Master Catalog

Two Line Element Set (TLE):
1 38793U 99025EUH 23149.82885553  .00010397  00000-0  23413-2 0  9993
2 38793  98.6560 265.5044 0092599 244.9350 270.8991 14.53952599601132
Source of the keplerian elements: AFSPC